sat.trackr.live / text

‹ back to catalog

XIWANG-1 (HOPE-1)

NORAD 36122 · 2009-072B

PAYLOAD ACTIVE UNKNOWN

§ Identity

Operator
Country
PRC
Launch date
2009-12-15
Launch site
TAISC
Launch vehicle
Mass (kg)
RCS (m²)
0.31

Purposes: comms

External: N2YO · Heavens-Above · Gunter

§ Orbital elements

Epoch: 2026-09-20T04:00:00.679392Z

Period
109.39 min
Inclination
100.4129°
Eccentricity
0.0007903
Mean motion
13.16440322 rev/d
Perigee alt
1,192.4 km
Apogee alt
1,204.3 km
Semi-major
7,576.5 km
B*
-3.8120e-4
RAAN
215.5157°
Arg perigee
21.7777°
Mean anomaly
338.3670°
Rev number
80,550

§ Raw data

XIWANG-1 (HOPE-1)1 36122U 09072B   26263.16667453 -.00000190  00000+0 -38120-3 0  99972 36122 100.4129 215.5157 0007903  21.7777 338.3670 13.16440322805503

JSON: /api/v1/satellites/36122 · /tle

For live sub-satellite position, see the globe view (requires WebGL).

§ Visibility from observer

Set your observer location to see the next 7 days of passes ≥ 10°. The values pass through the URL so the page stays shareable.

No JS? Fill the form by hand. The geolocation button needs JavaScript.

§ Radio — SatNOGS DB

ModeDescriptionDownlinkUplink
CW CW Beacon 435.791 MHz
FM Mode V/U FM 435.675 MHz 145.825 MHz
AFSK Mode V/U BBS AFSK (inactive) 435.675 MHz 145.825 MHz
FMN Mode V/U Linear (inactive) 435.715 MHz–435.765 MHz 145.925 MHz–145.975 MHz

4 transmitters · refreshed weekly from db.satnogs.org